Weather History for KANE - May, 2013

Change the Weather History Date:

Tuesday, May 7, 2013

  Actual Average Record
Temperature  
Mean Temperature 63 °F -  
Max Temperature 78 °F 62 °F 82 °F (2000)
Min Temperature 48 °F 43 °F 39 °F (2002)
Degree Days  
Heating Degree Days 2    
Growing Degree Days 13 (Base 50)    
Moisture  
Dew Point 46 °F    
Average Humidity 65    
Maximum Humidity 93    
Minimum Humidity 24    
Precipitation  
Precipitation 0.00 in - - ()
Sea Level Pressure  
Sea Level Pressure 30.02 in    
Wind  
Wind Speed 1 mph (SSE)    
Max Wind Speed 14 mph    
Max Gust Speed 22 mph    
Visibility 10 miles    
Events      
Averages and records for this station are not official NWS values.
T = Trace of Precipitation, MM = Missing Value Source: NWS Daily Summary

Daily Weather History Graph

Daily Weather History Graph

Search for Another Location

Airport or City:

Trip Planner

Search our weather history database for the weather conditions in past years. The results will help you decide how hot, cold, wet, or windy it might be!

Date:

Astronomy

May. 07, 2013 Rise Set
Actual Time 5:52 AM CDT 8:26 PM CDT
Civil Twilight 5:19 AM CDT 8:59 PM CDT
Nautical Twilight 4:37 AM CDT 9:41 PM CDT
Astronomical Twilight 3:50 AM CDT 10:29 PM CDT
Moon 4:33 AM CDT (5/7) 6:22 PM CDT (5/7)
Length of Visible Light 15h 40m
Length of Day
14h 33m
Waning Crescent, 5% of the Moon is Illuminated
May 7
Waning Crescent
May 9
New
May 17
First Quarter
May 24
Full
May 31
Last Quarter

Hourly Weather History & Observations

Time (CDT) Temp. Dew Point Humidity Pressure Visibility Wind Dir Wind Speed Gust Speed Precip Events Conditions
12:14 AM 57.2 °F 48.2 °F 72% 30.04 in 10.0 mi Calm Calm - N/A   Clear
12:33 AM 55.4 °F 48.2 °F 77% 30.04 in 10.0 mi Calm Calm - N/A   Clear
12:54 AM 55.4 °F 48.2 °F 77% 30.04 in 10.0 mi Calm Calm - N/A   Clear
1:14 AM 55.4 °F 48.2 °F 77% 30.04 in 10.0 mi Calm Calm - N/A   Clear
1:33 AM 53.6 °F 48.2 °F 82% 30.04 in 10.0 mi Calm Calm - N/A   Clear
1:54 AM 55.4 °F 46.4 °F 72% 30.04 in 10.0 mi Calm Calm - N/A   Clear
2:14 AM 53.6 °F 46.4 °F 77% 30.04 in 10.0 mi Calm Calm - N/A   Clear
2:34 AM 53.6 °F 46.4 °F 77% 30.04 in 10.0 mi Calm Calm - N/A   Clear
2:54 AM 53.6 °F 46.4 °F 77% 30.04 in 10.0 mi Calm Calm - N/A   Clear
3:14 AM 51.8 °F 46.4 °F 82% 30.04 in 10.0 mi Calm Calm - N/A   Clear
3:34 AM 53.6 °F 46.4 °F 77% 30.03 in 10.0 mi Calm Calm - N/A   Clear
3:54 AM 50.0 °F 46.4 °F 87% 30.04 in 10.0 mi Calm Calm - N/A   Clear
4:14 AM 50.0 °F 46.4 °F 87% 30.04 in 10.0 mi Calm Calm - N/A   Clear
4:34 AM 50.0 °F 46.4 °F 87% 30.04 in 10.0 mi Calm Calm - N/A   Clear
4:54 AM 50.0 °F 46.4 °F 87% 30.04 in 10.0 mi Calm Calm - N/A   Clear
5:14 AM 50.0 °F 46.4 °F 87% 30.04 in 10.0 mi Calm Calm - N/A   Clear
5:34 AM 48.2 °F 46.4 °F 93% 30.04 in 10.0 mi Calm Calm - N/A   Clear
5:54 AM 48.2 °F 46.4 °F 93% 30.04 in 10.0 mi Calm Calm - N/A   Clear
6:13 AM 48.2 °F 46.4 °F 93% 30.05 in 10.0 mi Calm Calm - N/A   Clear
6:34 AM 50.0 °F 46.4 °F 87% 30.05 in 10.0 mi Calm Calm - N/A   Clear
6:45 AM 50.0 °F 46.4 °F 87% 30.06 in 10.0 mi ENE 5.8 mph - N/A   Mostly Cloudy
6:54 AM 51.8 °F 48.2 °F 88% 30.06 in 10.0 mi Calm Calm - N/A   Clear
7:45 AM 55.4 °F 50.0 °F 82% 30.06 in 10.0 mi Calm Calm - N/A   Mostly Cloudy
8:45 AM 62.6 °F 50.0 °F 63% 30.07 in 10.0 mi Calm Calm - N/A   Mostly Cloudy
9:45 AM 68.0 °F 50.0 °F 52% 30.06 in 10.0 mi SSE 4.6 mph - N/A   Mostly Cloudy
10:45 AM 73.4 °F 48.2 °F 41% 30.05 in 10.0 mi South 4.6 mph - N/A   Mostly Cloudy
11:45 AM 75.2 °F 44.6 °F 34% 30.04 in 10.0 mi SE 6.9 mph - N/A   Mostly Cloudy
12:45 PM 75.2 °F 41.0 °F 29% 30.03 in 10.0 mi South 8.1 mph - N/A   Mostly Cloudy
1:45 PM 77.0 °F 42.8 °F 29% 30.01 in 10.0 mi South 5.8 mph 21.9 mph N/A   Mostly Cloudy
2:45 PM 78.8 °F 39.2 °F 24% 30.00 in 10.0 mi South 13.8 mph - N/A   Scattered Clouds
3:45 PM 77.0 °F 37.4 °F 24% 29.99 in 10.0 mi South 11.5 mph - N/A   Scattered Clouds
5:45 PM 77.0 °F 42.8 °F 29% 29.97 in 10.0 mi SSE 8.1 mph - N/A   Scattered Clouds
6:45 PM 77.0 °F 42.8 °F 29% 29.96 in 10.0 mi South 8.1 mph - N/A   Scattered Clouds
8:45 PM 73.4 °F 44.6 °F 36% 29.96 in 10.0 mi SW 3.5 mph - N/A   Scattered Clouds
9:13 PM 69.8 °F 46.4 °F 43% 29.97 in 10.0 mi Calm Calm - N/A   Clear
9:34 PM 66.2 °F 46.4 °F 49% 29.97 in 10.0 mi Calm Calm - N/A   Clear
9:50 PM 66.2 °F 46.4 °F 49% 29.97 in 10.0 mi SE 3.5 mph - N/A   Overcast
9:53 PM 64.4 °F 48.2 °F 56% 29.97 in 10.0 mi Calm Calm - N/A   Clear
10:14 PM 62.6 °F 46.4 °F 55% 29.98 in 10.0 mi SSE 3.5 mph - N/A   Clear
10:34 PM 62.6 °F 46.4 °F 55% 29.97 in 10.0 mi Calm Calm - N/A   Clear
10:53 PM 60.8 °F 48.2 °F 63% 29.97 in 10.0 mi SE 3.5 mph - N/A   Clear
11:14 PM 60.8 °F 48.2 °F 63% 29.97 in 10.0 mi Calm Calm - N/A   Clear
11:34 PM 62.6 °F 46.4 °F 55% 29.97 in 10.0 mi South 3.5 mph - N/A   Clear
11:54 PM 60.8 °F 48.2 °F 63% 29.97 in 10.0 mi South 3.5 mph - N/A   Clear